User: anonymous   Login
Location: Unspecified
(42.1900°N, 71.3291°W)
Time: 04:40:31
(UTC-05:00)
Language:

Resurs 1-4 Rocket - Orbit

View from above orbital plane
View from above orbital plane
View from above satellite
View from above satellite

Ground track
Ground track

The orbit data is extracted from the following two-line orbital elements,

1 25400U 98043G   14326.51449222  .00000078  00000-0  50644-4 0  8122
2 25400 098.3562 295.7873 0010547 157.7661 202.3978 14.25274905851494
Epoch (UTC): 22 November 2014 12:20:52
Eccentricity: 0.0010547
inclination: 98.3562°
perigee height: 800 km
apogee height: 815 km
right ascension of ascending node: 295.7873°
argument of perigee: 157.7661°
revolutions per day: 14.25274905
mean anomaly at epoch: 202.3978°
orbit number at epoch: 85149

The dashed part of the orbit path shows where the satellite is in the earth's shadow,  

DLR